Alexandria, LA

8:21 PM CST on December 17, 2017 (GMT -0600)
Alexandria International

Weather History for KAEX - September, 2014

Change the Weather History Date:

Wednesday, September 3, 2014

  Actual Average Record
Temperature  
Mean Temperature 82 °F 81 °F  
Max Temperature 93 °F 92 °F 106 °F (2000)
Min Temperature 71 °F 70 °F 54 °F (1893)
Degree Days  
Heating Degree Days 0 0  
Month to date heating degree days 0 0  
Since 1 July heating degree days 0 0  
Cooling Degree Days 17 16  
Month to date cooling degree days 53 48  
Year to date cooling degree days 1961 2035  
Growing Degree Days 31 (Base 50)    
Moisture  
Dew Point 72 °F    
Average Humidity 75    
Maximum Humidity 100    
Minimum Humidity 49    
Precipitation  
Precipitation 0.00 in 0.07 in 3.80 in (1985)
Month to date precipitation 0.13 0.21  
Year to date precipitation 31.48 36.44  
Sea Level Pressure  
Sea Level Pressure 30.01 in    
Wind  
Wind Speed 3 mph (SE)    
Max Wind Speed 14 mph    
Max Gust Speed 18 mph    
Visibility 8 miles    
Events      
T = Trace of Precipitation, MM = Missing Value Source: NWS Daily Summary

Daily Weather History Graph

Daily Weather History Graph

Search for Another Location

Airport or City:

Trip Planner

Search our weather history database for the weather conditions in past years. The results will help you decide how hot, cold, wet, or windy it might be!

Date:

Astronomy

Sep. 03, 2014 Rise Set
Actual Time 6:47 AM CDT 7:31 PM CDT
Civil Twilight 6:22 AM CDT 7:55 PM CDT
Nautical Twilight 5:53 AM CDT 8:24 PM CDT
Astronomical Twilight 5:23 AM CDT 8:54 PM CDT
Moon 3:01 PM CDT (9/3) 12:53 AM CDT (9/3)
Length of Visible Light 13h 33m
Length of Day
12h 43m
Waxing Gibbous, 64% of the Moon is Illuminated
Sep 3
Waxing Gibbous
Sep 8
Full
Sep 15
Last Quarter
Sep 24
New
Oct 1
First Quarter

Hourly Weather History & Observations

Time (CDT) Temp. Heat Index Dew Point Humidity Pressure Visibility Wind Dir Wind Speed Gust Speed Precip Events Conditions
12:53 AM 73.9 °F - 73.0 °F 97% 29.99 in 10.0 mi Calm Calm - N/A   Clear
1:53 AM 72.0 °F - 72.0 °F 100% 29.99 in 10.0 mi Calm Calm - N/A   Clear
2:53 AM 72.0 °F - 71.1 °F 97% 29.98 in 9.0 mi SSE 3.5 mph - N/A   Clear
3:53 AM 72.0 °F - 71.1 °F 97% 29.99 in 10.0 mi Calm Calm - N/A   Clear
4:33 AM 72.0 °F - 71.1 °F 97% 29.99 in 1.5 mi Calm Calm - N/A   Clear
4:44 AM 72.0 °F - 71.1 °F 97% 30.00 in 7.0 mi Calm Calm - N/A   Clear
4:53 AM 72.0 °F - 71.1 °F 97% 30.01 in 7.0 mi Calm Calm - N/A   Clear
5:53 AM 71.1 °F - 70.0 °F 96% 30.02 in 7.0 mi Calm Calm - N/A   Clear
6:04 AM 71.1 °F - 70.0 °F 96% 30.01 in 2.5 mi Calm Calm - N/A   Partly Cloudy
6:11 AM 71.1 °F - 71.1 °F 100% 30.01 in 1.2 mi Calm Calm - N/A   Partly Cloudy
6:26 AM 71.1 °F - 71.1 °F 100% 30.02 in 3.0 mi Calm Calm - N/A   Partly Cloudy
6:53 AM 71.1 °F - 71.1 °F 100% 30.03 in 9.0 mi Calm Calm - N/A   Clear
7:53 AM 73.9 °F - 73.0 °F 97% 30.05 in 7.0 mi Calm Calm - N/A   Clear
8:53 AM 77.0 °F - 73.9 °F 90% 30.05 in 10.0 mi ESE 4.6 mph - N/A   Clear
9:53 AM 80.1 °F 85.1 °F 75.0 °F 85% 30.06 in 10.0 mi SSE 5.8 mph - N/A   Partly Cloudy
10:53 AM 84.0 °F 93.7 °F 77.0 °F 79% 30.06 in 10.0 mi Calm Calm - N/A   Scattered Clouds
11:53 AM 87.1 °F 95.4 °F 73.9 °F 65% 30.05 in 10.0 mi Variable 3.5 mph - N/A   Partly Cloudy
12:53 PM 89.1 °F 98.0 °F 73.9 °F 61% 30.03 in 10.0 mi Calm Calm - N/A   Scattered Clouds
1:53 PM 91.0 °F 99.3 °F 73.0 °F 55% 30.03 in 10.0 mi West 3.5 mph - N/A   Partly Cloudy
2:53 PM 91.0 °F 96.6 °F 70.0 °F 50% 30.00 in 10.0 mi Variable 4.6 mph - N/A   Partly Cloudy
4:53 PM 91.9 °F 99.5 °F 72.0 °F 52% 29.97 in 10.0 mi South 4.6 mph - N/A   Partly Cloudy
5:53 PM 91.0 °F 97.6 °F 71.1 °F 52% 29.97 in 10.0 mi East 3.5 mph - N/A   Clear
6:53 PM 88.0 °F 94.7 °F 72.0 °F 59% 29.97 in 10.0 mi SSE 4.6 mph - N/A   Clear
7:53 PM 84.0 °F 91.2 °F 73.9 °F 72% 29.98 in 10.0 mi SSE 3.5 mph - N/A   Clear
8:53 PM 79.0 °F - 73.0 °F 82% 30.00 in 10.0 mi SE 11.5 mph - N/A   Clear
10:53 PM 75.9 °F - 72.0 °F 87% 30.03 in 10.0 mi SE 5.8 mph - N/A   Clear
11:53 PM 75.0 °F - 72.0 °F 90% 30.03 in 10.0 mi SE 3.5 mph - N/A   Clear